GW3202 Weather Reports


Display with metric or nautical units.
time (UTC)temp
F
wind
direction
speed
MPH
gust
MPH
rain 1hr
in
rain 24hr
in
rain mn
in
humidity
%
barometer
mb
20260503233003 80 167 10.0 22.0 0.00 0.00 0.00 62 1017.9
20260503232003 81 153 13.0 22.0 0.00 0.00 0.00 56 1018.0
20260503231003 81 182 13.0 23.0 0.00 0.00 0.00 56 1017.9
20260503230004 83 163 9.0 18.0 0.00 0.00 0.00 51 1018.0
20260503225003 83 199 7.0 22.0 0.00 0.00 0.00 54 1018.0
20260503224004 84 162 7.0 18.0 0.00 0.00 0.00 51 1017.9
20260503223004 83 143 8.0 20.0 0.00 0.00 0.00 56 1018.1
20260503221003 85 218 6.0 20.0 0.00 0.00 0.00 50 1018.2
20260503220003 85 163 3.0 20.0 0.00 0.00 0.00 50 1018.2
20260503215008 86 211 4.0 13.0 0.00 0.00 0.00 48 1018.1
20260503214004 87 241 3.0 16.0 0.00 0.00 0.00 44 1018.2
20260503213003 85 140 7.0 15.0 0.00 0.00 0.00 47 1018.4
20260503212003 86 196 3.0 14.0 0.00 0.00 0.00 47 1018.4
20260503211004 87 203 6.0 15.0 0.00 0.00 0.00 42 1018.6
20260503210003 86 178 4.0 15.0 0.00 0.00 0.00 43 1018.6
20260503205004 87 197 7.0 13.0 0.00 0.00 0.00 43 1018.7
20260503204003 85 74 5.0 15.0 0.00 0.00 0.00 45 1019.0
20260503203004 87 150 4.0 15.0 0.00 0.00 0.00 45 1019.2
20260503202003 85 169 6.0 17.0 0.00 0.00 0.00 47 1019.2
20260503201003 85 106 7.0 16.0 0.00 0.00 0.00 49 1019.2
20260503200004 85 143 7.0 20.0 0.00 0.00 0.00 49 1019.2
20260503195005 86 135 3.0 13.0 0.00 0.00 0.00 46 1019.5
20260503194003 85 148 5.0 13.0 0.00 0.00 0.00 43 1019.6
20260503193004 86 185 2.0 17.0 0.00 0.00 0.00 46 1019.6
20260503192003 85 243 3.0 10.0 0.00 0.00 0.00 42 1019.9
20260503190003 83 125 9.0 14.0 0.00 0.00 0.00 43 1020.2
20260503184004 82 196 5.0 12.0 0.00 0.00 0.00 50 1020.4
20260503183004 83 171 5.0 15.0 0.00 0.00 0.00 50 1020.5
20260503181004 82 162 6.0 12.0 0.00 0.00 0.00 51 1020.9
20260503180004 81 180 3.0 12.0 0.00 0.00 0.00 54 1021.0
20260503175004 80 173 3.0 12.0 0.00 0.00 0.00 53 1021.0
20260503174003 80 246 3.0 15.0 0.00 0.00 0.00 57 1021.0
20260503173003 81 170 3.0 10.0 0.00 0.00 0.00 55 1021.1
20260503172004 80 248 5.0 9.0 0.00 0.00 0.00 60 1021.2
20260503171003 78 166 4.0 9.0 0.00 0.00 0.00 62 1021.2
20260503131004 65 12 0.0 2.0 0.00 0.00 0.00 91 1020.5
20260503081004 63 26 1.0 5.0 0.00 0.00 0.00 94 1019.4
20260503072004 64 108 3.0 5.0 0.00 0.00 0.00 93 1019.8
20260503071008 64 87 2.0 2.0 0.00 0.00 0.00 93 1019.7
20260503055003 66 153 1.0 5.0 0.00 0.00 0.00 90 1020.1
20260503054004 67 161 1.0 8.0 0.00 0.00 0.00 90 1020.1
20260503053004 67 125 3.0 8.0 0.00 0.00 0.00 90 1020.3
20260503052003 67 171 1.0 6.0 0.00 0.00 0.00 90 1020.3
20260503051004 67 216 3.0 6.0 0.00 0.00 0.00 90 1020.3
20260503050004 67 192 1.0 5.0 0.00 0.00 0.00 90 1020.2
20260503045004 67 190 2.0 7.0 0.00 0.00 0.00 90 1020.2
20260503044004 67 189 2.0 8.0 0.00 0.00 0.00 90 1020.1
20260503043004 67 169 1.0 6.0 0.00 0.00 0.00 90 1019.9
20260503042004 67 293 2.0 9.0 0.00 0.00 0.00 90 1020.0
20260503041004 67 174 2.0 6.0 0.00 0.00 0.00 90 1019.8
20260503040003 67 215 0.0 9.0 0.00 0.00 0.00 89 1019.8
20260503035003 67 248 0.0 9.0 0.00 0.00 0.00 89 1019.6
20260503034004 67 126 2.0 13.0 0.00 0.00 0.00 89 1019.3
20260503033004 67 131 5.0 18.0 0.00 0.00 0.00 89 1019.2
20260503032004 67 158 3.0 20.0 0.00 0.00 0.00 89 1019.0
20260503031004 68 148 7.0 20.0 0.00 0.00 0.00 88 1018.9
20260503025004 68 152 6.0 20.0 0.00 0.00 0.00 86 1018.7
20260503024004 68 161 5.0 18.0 0.00 0.00 0.00 86 1018.5
20260503023003 69 169 6.0 22.0 0.00 0.00 0.00 86 1018.3
20260503021003 69 134 10.0 25.0 0.00 0.00 0.00 85 1018.1
20260503020004 69 156 17.0 24.0 0.00 0.00 0.00 85 1017.7
20260503015004 69 170 11.0 24.0 0.00 0.00 0.00 84 1017.6
20260503012004 70 168 11.0 31.0 0.00 0.00 0.00 84 1017.2
20260503011005 71 138 14.0 30.0 0.00 0.00 0.00 82 1017.1
20260503010004 72 159 12.0 32.0 0.00 0.00 0.00 80 1016.8
20260503005003 72 155 15.0 32.0 0.00 0.00 0.00 78 1016.7
20260503004004 74 153 13.0 28.0 0.00 0.00 0.00 76 1016.7
20260503002004 75 138 13.0 25.0 0.00 0.00 0.00 71 1016.6
20260503001005 76 151 13.0 22.0 0.00 0.00 0.00 68 1016.5
20260503000003 77 145 10.0 24.0 0.00 0.00 0.00 67 1016.3
20260502235004 77 192 7.0 24.0 0.00 0.00 0.00 65 1016.2
20260502234004 78 128 10.0 25.0 0.00 0.00 0.00 64 1016.0